Time,TemperatureF,DewpointF,PressureIn,WindDirection,WindDirectionDegrees,WindSpeedMPH,WindSpeedGustMPH,Humidity,HourlyPrecipIn,Conditions,Clouds,dailyrainin,SoftwareType,DateUTC
2013-04-10 00:01:00,56.8,36.8,29.91,ENE,60,1.9,2.5,47,0.00,,,0.00,WSDL version 420,2013-04-10 04:01:00,
2013-04-10 00:02:00,56.9,36.9,29.91,ENE,72,2.6,2.7,47,0.00,,,0.00,WSDL version 420,2013-04-10 04:02:00,
2013-04-10 00:04:00,57.0,37.1,29.88,East,98,2.1,2.7,48,0.00,,,0.00,WSDL version 420,2013-04-10 04:04:00,
2013-04-10 00:10:00,57.5,37.4,29.88,ESE,120,0.0,3.8,47,0.00,,,0.00,WSDL version 420,2013-04-10 04:10:00,
2013-04-10 00:16:00,58.0,37.7,29.88,South,186,0.9,2.7,46,0.00,,,0.00,WSDL version 420,2013-04-10 04:16:00,
2013-04-10 00:22:00,58.5,37.8,29.88,NW,315,0.0,2.7,46,0.00,,,0.00,WSDL version 420,2013-04-10 04:22:00,
2013-04-10 00:28:00,58.3,37.6,29.88,SSE,158,0.0,3.4,46,0.00,,,0.00,WSDL version 420,2013-04-10 04:28:00,
2013-04-10 00:34:00,58.3,37.6,29.88,ENE,60,1.6,2.5,46,0.00,,,0.00,WSDL version 420,2013-04-10 04:34:00,
2013-04-10 00:41:00,58.5,37.8,29.88,NE,38,0.7,2.5,46,0.00,,,0.00,WSDL version 420,2013-04-10 04:41:00,
2013-04-10 00:48:00,58.7,38.0,29.88,ENE,73,2.0,6.5,46,0.00,,,0.00,WSDL version 420,2013-04-10 04:48:00,
2013-04-10 00:54:00,58.8,38.2,29.88,SSE,165,1.8,2.9,46,0.00,,,0.00,WSDL version 420,2013-04-10 04:54:00,
2013-04-10 01:00:00,58.8,38.1,29.88,NE,56,2.2,3.8,46,0.00,,,0.00,WSDL version 420,2013-04-10 05:00:00,
2013-04-10 01:06:00,58.9,38.2,29.88,SE,135,2.1,5.6,46,0.00,,,0.00,WSDL version 420,2013-04-10 05:06:00,
2013-04-10 01:12:00,59.1,37.8,29.88,SSW,208,2.6,4.7,45,0.00,,,0.00,WSDL version 420,2013-04-10 05:12:00,
2013-04-10 01:18:00,59.2,37.9,29.85,NE,45,4.5,5.4,45,0.00,,,0.00,WSDL version 420,2013-04-10 05:18:00,
2013-04-10 01:24:00,59.2,37.9,29.85,ESE,113,4.2,5.4,45,0.00,,,0.00,WSDL version 420,2013-04-10 05:24:00,
2013-04-10 01:31:00,59.1,37.8,29.85,ENE,68,1.9,4.9,45,0.00,,,0.00,WSDL version 420,2013-04-10 05:31:00,
2013-04-10 01:37:00,59.1,37.8,29.85,NE,45,3.7,5.8,45,0.00,,,0.00,WSDL version 420,2013-04-10 05:37:00,
2013-04-10 01:43:00,58.9,38.0,29.85,East,83,6.0,7.4,46,-99.99,,,-99.99,WSDL version 420,2013-04-10 05:43:00,
2013-04-10 01:49:00,58.9,37.8,29.83,ESE,113,3.2,7.4,45,0.00,,,0.00,WSDL version 420,2013-04-10 05:49:00,
2013-04-10 01:55:00,58.9,38.0,29.83,East,98,3.5,5.4,46,0.00,,,0.00,WSDL version 420,2013-04-10 05:55:00,
2013-04-10 02:01:00,58.9,37.6,29.83,NW,315,2.1,4.7,45,0.00,,,0.00,WSDL version 420,2013-04-10 06:01:00,
2013-04-10 02:08:00,58.7,38.0,29.83,NNE,30,1.3,4.3,46,0.00,,,0.00,WSDL version 420,2013-04-10 06:08:00,
2013-04-10 02:14:00,58.5,37.8,29.83,NE,45,3.1,4.0,46,0.00,,,0.00,WSDL version 420,2013-04-10 06:14:00,
2013-04-10 02:20:00,58.3,37.7,29.80,South,180,0.0,3.8,46,0.00,,,0.00,WSDL version 420,2013-04-10 06:20:00,
2013-04-10 02:26:00,58.3,37.6,29.80,NW,321,3.0,4.0,46,0.00,,,0.00,WSDL version 420,2013-04-10 06:26:00,
2013-04-10 02:32:00,58.2,37.6,29.80,NW,315,2.2,4.0,46,0.00,,,0.00,WSDL version 420,2013-04-10 06:32:00,
2013-04-10 02:38:00,58.4,37.8,29.83,ESE,113,3.4,4.7,47,0.00,,,0.00,WSDL version 420,2013-04-10 06:38:00,
2013-04-10 02:44:00,55.6,40.7,29.83,WSW,248,3.1,6.0,68,0.04,,,0.04,WSDL version 420,2013-04-10 06:44:00,
2013-04-10 02:51:00,52.5,45.8,29.88,ENE,68,3.7,5.4,83,0.04,,,0.04,WSDL version 420,2013-04-10 06:51:00,
2013-04-10 02:57:00,51.8,45.8,29.88,North,360,8.9,12.5,82,0.04,,,0.04,WSDL version 420,2013-04-10 06:57:00,
2013-04-10 03:03:00,51.2,44.6,29.88,NE,53,4.9,12.5,82,0.04,,,0.04,WSDL version 420,2013-04-10 07:03:00,
2013-04-10 03:09:00,51.0,44.9,29.88,WNW,285,2.0,6.3,76,0.04,,,0.04,WSDL version 420,2013-04-10 07:09:00,
2013-04-10 03:15:00,50.9,45.7,29.88,NNW,330,2.8,3.6,87,0.08,,,0.08,WSDL version 420,2013-04-10 07:15:00,
2013-04-10 03:21:00,50.5,45.1,29.88,WSW,240,1.8,3.6,82,0.08,,,0.08,WSDL version 420,2013-04-10 07:21:00,
2013-04-10 03:27:00,50.5,45.4,29.88,NE,41,1.1,3.1,82,0.08,,,0.08,WSDL version 420,2013-04-10 07:27:00,
2013-04-10 03:33:00,50.5,45.9,29.88,NE,38,0.0,2.7,83,0.08,,,0.08,WSDL version 420,2013-04-10 07:33:00,
2013-04-10 03:40:00,50.6,46.3,29.88,NNE,23,0.0,2.7,86,0.08,,,0.08,WSDL version 420,2013-04-10 07:40:00,
2013-04-10 03:48:00,50.4,46.2,29.85,NNE,30,3.7,6.3,87,0.04,,,0.08,WSDL version 420,2013-04-10 07:48:00,
2013-04-10 03:54:00,50.1,44.9,29.85,NNE,30,4.5,5.8,79,0.04,,,0.08,WSDL version 420,2013-04-10 07:54:00,
2013-04-10 04:00:00,50.2,46.4,29.85,NE,53,3.1,5.8,87,0.04,,,0.08,WSDL version 420,2013-04-10 08:00:00,
2013-04-10 04:06:00,50.2,46.1,29.85,NNE,30,3.4,4.0,86,0.04,,,0.08,WSDL version 420,2013-04-10 08:06:00,
2013-04-10 04:13:00,50.1,46.3,29.85,NNE,15,0.6,4.0,87,0.00,,,0.08,WSDL version 420,2013-04-10 08:13:00,
2013-04-10 04:19:00,50.0,45.4,29.83,NE,34,2.2,3.1,84,0.00,,,0.08,WSDL version 420,2013-04-10 08:19:00,
2013-04-10 04:25:00,50.0,44.8,29.83,NNW,345,0.7,2.5,83,0.00,,,0.08,WSDL version 420,2013-04-10 08:25:00,
2013-04-10 04:31:00,50.0,45.8,29.83,NNW,338,0.4,2.2,86,0.00,,,0.08,WSDL version 420,2013-04-10 08:31:00,
2013-04-10 04:37:00,50.1,45.7,29.83,NNW,338,1.7,2.5,84,0.00,,,0.08,WSDL version 420,2013-04-10 08:37:00,
2013-04-10 04:43:00,50.2,46.4,29.83,NNE,15,0.0,2.5,87,0.00,,,0.08,WSDL version 420,2013-04-10 08:43:00,
2013-04-10 04:49:00,50.1,46.0,29.83,NNW,338,1.7,2.5,87,0.00,,,0.08,WSDL version 420,2013-04-10 08:49:00,
2013-04-10 04:55:00,50.0,46.0,29.83,NW,315,0.6,2.5,87,0.00,,,0.08,WSDL version 420,2013-04-10 08:55:00,
2013-04-10 05:01:00,50.0,45.7,29.83,NW,309,1.7,2.5,84,0.00,,,0.08,WSDL version 420,2013-04-10 09:01:00,
2013-04-10 05:08:00,49.8,45.7,29.85,WNW,293,2.2,2.2,86,0.00,,,0.08,WSDL version 420,2013-04-10 09:08:00,
2013-04-10 05:14:00,50.2,46.7,29.85,WNW,293,0.0,2.2,89,0.00,,,0.08,WSDL version 420,2013-04-10 09:14:00,
2013-04-10 05:20:00,50.2,46.7,29.83,WNW,293,0.6,1.3,88,0.00,,,0.08,WSDL version 420,2013-04-10 09:20:00,
2013-04-10 05:26:00,50.2,47.0,29.83,WNW,293,0.7,2.0,89,0.00,,,0.08,WSDL version 420,2013-04-10 09:26:00,
2013-04-10 05:32:00,50.1,46.1,29.83,WNW,293,0.5,2.5,86,0.00,,,0.08,WSDL version 420,2013-04-10 09:32:00,
2013-04-10 05:38:00,50.3,47.2,29.85,NNW,330,0.5,2.5,90,0.00,,,0.08,WSDL version 420,2013-04-10 09:38:00,
2013-04-10 05:45:00,50.4,48.0,29.85,ESE,105,1.1,3.1,92,0.00,,,0.08,WSDL version 420,2013-04-10 09:45:00,
2013-04-10 05:51:00,50.3,47.3,29.85,West,270,0.0,3.1,89,0.00,,,0.08,WSDL version 420,2013-04-10 09:51:00,
2013-04-10 05:57:00,50.3,47.5,29.85,South,180,0.0,0.0,90,0.00,,,0.08,WSDL version 420,2013-04-10 09:57:00,
2013-04-10 06:03:00,50.1,47.0,29.85,South,180,0.0,1.3,88,0.00,,,0.08,WSDL version 420,2013-04-10 10:03:00,
2013-04-10 06:09:00,49.9,46.5,29.85,SW,225,0.0,1.6,89,0.00,,,0.08,WSDL version 420,2013-04-10 10:09:00,
2013-04-10 06:15:00,50.1,47.1,29.85,SW,225,0.0,0.0,89,0.00,,,0.08,WSDL version 420,2013-04-10 10:15:00,
2013-04-10 06:21:00,49.9,46.9,29.85,SW,225,0.0,0.0,90,0.00,,,0.08,WSDL version 420,2013-04-10 10:21:00,
2013-04-10 06:27:00,49.9,47.1,29.85,SW,225,0.0,0.0,90,0.00,,,0.08,WSDL version 420,2013-04-10 10:27:00,
2013-04-10 06:33:00,49.9,47.3,29.85,SW,225,0.0,0.0,91,0.00,,,0.08,WSDL version 420,2013-04-10 10:33:00,
2013-04-10 06:39:00,49.5,46.7,29.85,SW,225,1.1,1.1,90,0.00,,,0.08,WSDL version 420,2013-04-10 10:39:00,
2013-04-10 06:46:00,49.3,46.5,29.85,SW,225,0.6,1.3,90,0.00,,,0.08,WSDL version 420,2013-04-10 10:46:00,
2013-04-10 06:52:00,49.2,46.6,29.88,SW,225,0.0,1.3,91,0.00,,,0.08,WSDL version 420,2013-04-10 10:52:00,
2013-04-10 06:58:00,49.1,46.3,29.88,WNW,285,0.0,0.0,90,0.00,,,0.08,WSDL version 420,2013-04-10 10:58:00,
2013-04-10 07:04:00,49.1,46.5,29.88,WNW,293,0.0,0.0,90,0.00,,,0.08,WSDL version 420,2013-04-10 11:04:00,
2013-04-10 07:10:00,49.6,47.5,29.88,NNW,332,0.0,0.0,92,0.00,,,0.08,WSDL version 420,2013-04-10 11:10:00,
2013-04-10 07:16:00,49.7,47.8,29.88,NNW,338,0.0,3.1,93,0.00,,,0.08,WSDL version 420,2013-04-10 11:16:00,
2013-04-10 07:23:00,49.8,48.0,29.88,South,180,0.5,3.1,93,0.00,,,0.08,WSDL version 420,2013-04-10 11:23:00,
2013-04-10 07:29:00,49.8,47.8,29.88,SSE,150,1.7,2.5,93,0.00,,,0.08,WSDL version 420,2013-04-10 11:29:00,
2013-04-10 07:35:00,49.8,47.7,29.88,SE,135,2.2,2.7,92,0.00,,,0.08,WSDL version 420,2013-04-10 11:35:00,
2013-04-10 07:41:00,49.8,47.7,29.88,NW,315,0.0,2.7,92,0.00,,,0.08,WSDL version 420,2013-04-10 11:41:00,
2013-04-10 07:47:00,50.1,48.1,29.88,WNW,300,0.4,2.0,93,0.00,,,0.08,WSDL version 420,2013-04-10 11:47:00,
2013-04-10 07:53:00,50.2,48.2,29.88,NE,45,2.5,2.5,92,0.00,,,0.08,WSDL version 420,2013-04-10 11:53:00,
2013-04-10 07:59:00,50.5,48.2,29.88,West,270,0.0,2.5,91,0.00,,,0.08,WSDL version 420,2013-04-10 11:59:00,
2013-04-10 08:06:00,50.5,48.2,29.91,West,270,0.0,2.0,91,0.00,,,0.08,WSDL version 420,2013-04-10 12:06:00,
2013-04-10 08:12:00,50.8,48.6,29.91,SE,135,2.5,2.5,92,0.00,,,0.08,WSDL version 420,2013-04-10 12:12:00,
2013-04-10 08:18:00,50.9,48.7,29.91,East,90,2.5,2.5,92,0.00,,,0.08,WSDL version 420,2013-04-10 12:18:00,
2013-04-10 08:24:00,51.2,48.7,29.91,South,180,0.0,2.5,91,0.00,,,0.08,WSDL version 420,2013-04-10 12:24:00,
2013-04-10 08:31:00,51.3,48.5,29.91,SE,146,1.2,2.0,90,0.00,,,0.08,WSDL version 420,2013-04-10 12:31:00,
2013-04-10 08:37:00,51.1,48.4,29.91,SE,135,0.0,1.6,90,0.00,,,0.08,WSDL version 420,2013-04-10 12:37:00,
2013-04-10 08:43:00,51.4,48.7,29.91,SSE,158,2.0,2.0,90,0.00,,,0.08,WSDL version 420,2013-04-10 12:43:00,
2013-04-10 08:49:00,51.4,48.4,29.91,South,188,0.4,2.0,89,0.00,,,0.08,WSDL version 420,2013-04-10 12:49:00,
2013-04-10 08:55:00,51.8,48.5,29.91,SSE,158,0.4,2.2,89,0.00,,,0.08,WSDL version 420,2013-04-10 12:55:00,
2013-04-10 09:01:00,52.4,49.3,29.91,West,270,0.0,1.1,89,0.00,,,0.08,WSDL version 420,2013-04-10 13:01:00,
2013-04-10 09:08:00,52.9,49.2,29.91,SSE,158,2.7,2.7,87,0.00,,,0.08,WSDL version 420,2013-04-10 13:08:00,
2013-04-10 09:14:00,53.0,49.0,29.91,SW,225,0.4,2.7,86,0.00,,,0.08,WSDL version 420,2013-04-10 13:14:00,
2013-04-10 09:20:00,52.9,48.6,29.91,South,180,1.4,2.0,86,0.00,,,0.08,WSDL version 420,2013-04-10 13:20:00,
2013-04-10 09:26:00,53.4,49.5,29.91,East,83,0.8,2.9,87,0.00,,,0.08,WSDL version 420,2013-04-10 13:26:00,
2013-04-10 09:32:00,53.6,49.3,29.91,SSE,158,1.3,2.9,84,0.00,,,0.08,WSDL version 420,2013-04-10 13:32:00,
2013-04-10 09:38:00,53.9,49.0,29.91,SSW,203,1.6,2.0,83,0.00,,,0.08,WSDL version 420,2013-04-10 13:38:00,
2013-04-10 09:45:00,54.5,49.6,29.91,NE,45,0.0,2.0,83,0.00,,,0.08,WSDL version 420,2013-04-10 13:45:00,
2013-04-10 09:53:00,55.4,50.3,29.91,SE,128,2.3,2.5,82,0.00,,,0.08,WSDL version 420,2013-04-10 13:53:00,
2013-04-10 09:59:00,55.7,49.6,29.91,SSE,158,0.0,2.7,80,0.00,,,0.08,WSDL version 420,2013-04-10 13:59:00,
2013-04-10 10:05:00,55.8,49.5,29.91,West,270,1.1,3.8,79,0.00,,,0.08,WSDL version 420,2013-04-10 14:05:00,
2013-04-10 10:11:00,55.9,49.4,29.91,WSW,248,1.3,2.9,78,0.00,,,0.08,WSDL version 420,2013-04-10 14:11:00,
2013-04-10 10:17:00,56.4,50.1,29.91,East,90,2.9,2.9,80,0.00,,,0.08,WSDL version 420,2013-04-10 14:17:00,
2013-04-10 10:23:00,57.0,50.7,29.91,ENE,75,2.2,2.9,79,0.00,,,0.08,WSDL version 420,2013-04-10 14:23:00,
2013-04-10 10:29:00,57.6,50.7,29.91,NNE,23,2.9,3.6,76,0.00,,,0.08,WSDL version 420,2013-04-10 14:29:00,
2013-04-10 10:35:00,58.1,50.8,29.91,SW,225,1.9,3.8,77,0.00,,,0.08,WSDL version 420,2013-04-10 14:35:00,
2013-04-10 10:41:00,58.9,51.2,29.91,SW,225,2.7,3.8,75,0.00,,,0.08,WSDL version 420,2013-04-10 14:41:00,
2013-04-10 10:48:00,59.0,50.6,29.91,East,101,1.2,4.0,74,0.00,,,0.08,WSDL version 420,2013-04-10 14:48:00,
2013-04-10 10:54:00,59.1,50.8,29.91,SE,143,2.6,4.0,74,0.00,,,0.08,WSDL version 420,2013-04-10 14:54:00,
2013-04-10 11:00:00,59.2,50.3,29.91,North,360,1.1,4.9,72,0.00,,,0.08,WSDL version 420,2013-04-10 15:00:00,
2013-04-10 11:06:00,59.7,51.0,29.91,NNE,30,2.3,4.9,73,0.00,,,0.08,WSDL version 420,2013-04-10 15:06:00,
2013-04-10 11:12:00,58.9,50.2,29.91,ENE,75,3.5,4.9,73,0.00,,,0.08,WSDL version 420,2013-04-10 15:12:00,
2013-04-10 11:18:00,58.8,50.3,29.91,NE,45,0.9,4.9,74,0.00,,,0.08,WSDL version 420,2013-04-10 15:18:00,
2013-04-10 11:24:00,58.7,50.3,29.91,South,191,1.5,3.1,73,0.00,,,0.08,WSDL version 420,2013-04-10 15:24:00,
2013-04-10 11:31:00,58.3,49.7,29.91,NW,315,0.0,4.0,73,0.00,,,0.08,WSDL version 420,2013-04-10 15:31:00,
2013-04-10 11:37:00,58.7,50.0,29.91,NW,315,1.1,4.0,72,0.00,,,0.08,WSDL version 420,2013-04-10 15:37:00,
2013-04-10 11:43:00,58.3,49.5,29.91,ENE,68,1.0,2.9,72,0.00,,,0.08,WSDL version 420,2013-04-10 15:43:00,
2013-04-10 11:49:00,57.8,48.8,29.91,NE,34,2.3,2.9,72,0.00,,,0.08,WSDL version 420,2013-04-10 15:49:00,
2013-04-10 11:55:00,58.0,49.2,29.91,NE,56,0.7,2.9,72,0.00,,,0.08,WSDL version 420,2013-04-10 15:55:00,
2013-04-10 12:01:00,58.3,49.6,29.91,ENE,68,3.3,3.6,73,0.00,,,0.08,WSDL version 420,2013-04-10 16:01:00,
2013-04-10 12:08:00,58.3,49.4,29.91,NNW,338,2.0,3.6,73,0.00,,,0.08,WSDL version 420,2013-04-10 16:08:00,
2013-04-10 12:14:00,58.8,49.8,29.91,SSE,158,1.6,3.4,72,0.00,,,0.08,WSDL version 420,2013-04-10 16:14:00,
2013-04-10 12:20:00,59.0,49.8,29.91,SSE,158,2.2,2.9,72,0.00,,,0.08,WSDL version 420,2013-04-10 16:20:00,
2013-04-10 12:26:00,59.2,50.0,29.91,SW,236,2.9,2.9,72,0.00,,,0.08,WSDL version 420,2013-04-10 16:26:00,
2013-04-10 12:32:00,59.0,49.6,29.91,NNE,15,3.1,4.0,71,0.00,,,0.08,WSDL version 420,2013-04-10 16:32:00,
2013-04-10 12:38:00,59.2,49.8,29.91,SSW,210,2.5,4.0,71,0.00,,,0.08,WSDL version 420,2013-04-10 16:38:00,
2013-04-10 12:44:00,59.1,49.4,29.91,NNW,338,1.1,2.7,70,0.00,,,0.08,WSDL version 420,2013-04-10 16:44:00,
2013-04-10 12:50:00,59.2,49.4,29.91,SW,225,0.0,2.7,70,0.00,,,0.08,WSDL version 420,2013-04-10 16:50:00,
2013-04-10 12:56:00,59.7,49.9,29.91,West,278,1.6,2.7,70,0.00,,,0.08,WSDL version 420,2013-04-10 16:56:00,
2013-04-10 13:02:00,60.1,50.0,29.91,East,83,2.1,3.6,70,0.00,,,0.08,WSDL version 420,2013-04-10 17:02:00,
2013-04-10 13:08:00,61.0,50.4,29.91,NE,45,3.2,4.3,68,0.00,,,0.08,WSDL version 420,2013-04-10 17:08:00,
2013-04-10 13:14:00,61.8,50.5,29.91,SSE,158,2.3,4.3,66,0.00,,,0.08,WSDL version 420,2013-04-10 17:14:00,
2013-04-10 13:21:00,62.7,51.2,29.91,NNE,15,2.5,3.4,65,0.00,,,0.08,WSDL version 420,2013-04-10 17:21:00,
2013-04-10 13:27:00,63.0,50.3,29.91,SE,135,3.0,3.4,63,0.00,,,0.08,WSDL version 420,2013-04-10 17:27:00,
2013-04-10 13:33:00,63.0,50.2,29.91,South,180,2.5,4.3,63,0.00,,,0.08,WSDL version 420,2013-04-10 17:33:00,
2013-04-10 13:39:00,63.0,50.2,29.91,NNE,30,2.0,4.7,63,0.00,,,0.08,WSDL version 420,2013-04-10 17:39:00,
2013-04-10 13:45:00,63.0,50.2,29.91,NE,45,4.3,4.7,63,0.00,,,0.08,WSDL version 420,2013-04-10 17:45:00,
2013-04-10 13:51:00,62.5,49.8,29.91,East,79,2.2,4.7,63,0.00,,,0.08,WSDL version 420,2013-04-10 17:51:00,
2013-04-10 13:58:00,62.3,49.8,29.91,NNE,30,4.3,4.7,64,0.00,,,0.08,WSDL version 420,2013-04-10 17:58:00,
2013-04-10 14:04:00,62.4,50.2,29.91,NE,53,2.2,4.7,64,0.00,,,0.08,WSDL version 420,2013-04-10 18:04:00,
2013-04-10 14:10:00,62.2,49.8,29.91,North,360,1.8,2.9,64,0.00,,,0.08,WSDL version 420,2013-04-10 18:10:00,
2013-04-10 14:16:00,62.1,49.9,29.91,NNW,345,1.8,4.0,65,0.00,,,0.08,WSDL version 420,2013-04-10 18:16:00,
2013-04-10 14:22:00,61.9,49.6,29.91,East,90,1.9,4.0,64,0.00,,,0.08,WSDL version 420,2013-04-10 18:22:00,
2013-04-10 14:28:00,61.9,49.7,29.91,NE,45,2.0,3.1,64,0.00,,,0.08,WSDL version 420,2013-04-10 18:28:00,
2013-04-10 14:34:00,61.7,49.8,29.91,North,349,3.0,4.5,65,0.00,,,0.08,WSDL version 420,2013-04-10 18:34:00,
2013-04-10 14:40:00,61.6,49.8,29.91,NE,38,2.2,4.5,65,0.00,,,0.08,WSDL version 420,2013-04-10 18:40:00,
2013-04-10 14:47:00,61.9,50.0,29.91,East,101,1.0,6.0,65,0.00,,,0.08,WSDL version 420,2013-04-10 18:47:00,
2013-04-10 14:53:00,61.7,49.7,29.88,WNW,293,1.3,6.0,65,0.00,,,0.08,WSDL version 420,2013-04-10 18:53:00,
2013-04-10 14:59:00,61.7,49.6,29.88,NNE,23,1.6,2.7,65,0.00,,,0.08,WSDL version 420,2013-04-10 18:59:00,
2013-04-10 15:05:00,61.9,50.0,29.88,NNE,15,1.4,3.1,65,0.00,,,0.08,WSDL version 420,2013-04-10 19:05:00,
2013-04-10 15:11:00,62.1,50.1,29.88,South,171,0.4,3.1,65,0.00,,,0.08,WSDL version 420,2013-04-10 19:11:00,
2013-04-10 15:17:00,61.9,49.6,29.88,NE,45,1.6,3.4,64,0.00,,,0.08,WSDL version 420,2013-04-10 19:17:00,
2013-04-10 15:23:00,61.6,49.5,29.88,ESE,120,3.1,3.8,65,0.00,,,0.08,WSDL version 420,2013-04-10 19:23:00,
2013-04-10 15:29:00,61.7,49.8,29.88,NE,45,1.6,3.8,65,0.00,,,0.08,WSDL version 420,2013-04-10 19:29:00,
2013-04-10 15:38:00,61.7,49.8,29.85,ENE,75,2.6,3.6,65,0.00,,,0.08,WSDL version 420,2013-04-10 19:38:00,
2013-04-10 15:44:00,61.6,49.4,29.85,NW,315,2.7,2.7,64,0.00,,,0.08,WSDL version 420,2013-04-10 19:44:00,
2013-04-10 15:50:00,61.5,49.5,29.85,ENE,75,2.8,3.4,65,0.00,,,0.08,WSDL version 420,2013-04-10 19:50:00,
2013-04-10 15:56:00,61.7,49.6,29.85,East,83,2.3,3.4,64,0.00,,,0.08,WSDL version 420,2013-04-10 19:56:00,
2013-04-10 16:02:00,62.1,49.8,29.85,East,79,2.5,3.4,64,0.00,,,0.08,WSDL version 420,2013-04-10 20:02:00,
2013-04-10 16:08:00,62.8,50.2,29.83,NE,45,1.3,3.4,63,0.00,,,0.08,WSDL version 420,2013-04-10 20:08:00,
2013-04-10 16:14:00,63.0,50.1,29.83,NE,56,3.1,3.6,62,0.00,,,0.08,WSDL version 420,2013-04-10 20:14:00,
2013-04-10 16:20:00,63.3,49.8,29.83,SE,135,2.0,6.0,61,0.00,,,0.08,WSDL version 420,2013-04-10 20:20:00,
2013-04-10 16:26:00,63.4,50.0,29.83,ENE,68,3.5,6.0,62,0.00,,,0.08,WSDL version 420,2013-04-10 20:26:00,
2013-04-10 16:33:00,63.9,50.3,29.83,South,180,2.4,6.0,61,0.00,,,0.08,WSDL version 420,2013-04-10 20:33:00,
2013-04-10 16:39:00,63.9,50.2,29.83,SSW,210,1.0,5.6,61,0.00,,,0.08,WSDL version 420,2013-04-10 20:39:00,
2013-04-10 16:45:00,64.3,50.6,29.83,South,180,2.5,4.7,61,0.00,,,0.08,WSDL version 420,2013-04-10 20:45:00,
2013-04-10 16:51:00,64.6,50.2,29.83,SSE,158,2.9,3.8,59,0.00,,,0.08,WSDL version 420,2013-04-10 20:51:00,
2013-04-10 16:58:00,64.7,50.4,29.83,NW,315,2.7,3.8,59,0.00,,,0.08,WSDL version 420,2013-04-10 20:58:00,
2013-04-10 17:04:00,64.8,50.5,29.80,South,169,1.2,4.7,60,0.00,,,0.08,WSDL version 420,2013-04-10 21:04:00,
2013-04-10 17:10:00,64.9,50.5,29.80,SE,135,3.6,4.7,60,0.00,,,0.08,WSDL version 420,2013-04-10 21:10:00,
2013-04-10 17:16:00,64.9,50.7,29.80,South,180,1.1,4.0,60,0.00,,,0.08,WSDL version 420,2013-04-10 21:16:00,
2013-04-10 17:22:00,64.8,51.2,29.80,SSW,203,0.0,3.6,61,0.00,,,0.08,WSDL version 420,2013-04-10 21:22:00,
2013-04-10 17:28:00,64.7,50.8,29.80,SW,225,1.3,2.7,61,0.00,,,0.08,WSDL version 420,2013-04-10 21:28:00,
2013-04-10 17:35:00,64.5,50.8,29.80,South,180,0.4,3.8,61,0.00,,,0.08,WSDL version 420,2013-04-10 21:35:00,
2013-04-10 17:41:00,64.5,50.9,29.80,SSW,203,1.7,2.7,61,0.00,,,0.08,WSDL version 420,2013-04-10 21:41:00,
2013-04-10 17:47:00,64.8,51.0,29.80,South,180,0.0,2.7,61,0.00,,,0.08,WSDL version 420,2013-04-10 21:47:00,
2013-04-10 17:53:00,64.8,51.0,29.80,South,180,2.0,4.3,61,0.00,,,0.08,WSDL version 420,2013-04-10 21:53:00,
2013-04-10 17:59:00,64.6,51.1,29.80,South,180,0.0,4.3,62,0.00,,,0.08,WSDL version 420,2013-04-10 21:59:00,
2013-04-10 18:05:00,64.6,51.0,29.80,South,180,0.5,1.6,61,0.00,,,0.08,WSDL version 420,2013-04-10 22:05:00,
2013-04-10 18:11:00,64.3,51.3,29.80,SSW,203,0.0,2.2,63,0.00,,,0.08,WSDL version 420,2013-04-10 22:11:00,
2013-04-10 18:18:00,64.3,51.3,29.80,South,180,0.7,2.2,63,0.00,,,0.08,WSDL version 420,2013-04-10 22:18:00,
2013-04-10 18:24:00,64.2,51.3,29.80,South,180,1.9,2.9,63,0.00,,,0.08,WSDL version 420,2013-04-10 22:24:00,
2013-04-10 18:30:00,64.0,51.1,29.80,SSE,158,0.9,2.0,63,0.00,,,0.08,WSDL version 420,2013-04-10 22:30:00,
2013-04-10 18:36:00,63.8,51.0,29.80,ESE,108,4.6,5.8,63,0.00,,,0.08,WSDL version 420,2013-04-10 22:36:00,
2013-04-10 18:42:00,63.9,51.0,29.80,South,188,3.1,5.8,63,0.00,,,0.08,WSDL version 420,2013-04-10 22:42:00,
2013-04-10 18:49:00,64.0,50.6,29.80,East,90,0.9,3.6,62,0.00,,,0.08,WSDL version 420,2013-04-10 22:49:00,
2013-04-10 18:55:00,64.0,50.5,29.80,WSW,255,4.0,5.8,61,0.00,,,0.08,WSDL version 420,2013-04-10 22:55:00,
2013-04-10 19:01:00,63.5,51.1,29.80,SW,225,1.3,5.8,66,0.00,,,0.08,WSDL version 420,2013-04-10 23:01:00,
2013-04-10 19:07:00,62.1,52.2,29.88,SE,146,0.5,2.0,71,0.00,,,0.08,WSDL version 420,2013-04-10 23:07:00,
2013-04-10 19:13:00,61.3,53.0,29.88,SE,135,1.8,4.9,77,0.00,,,0.08,WSDL version 420,2013-04-10 23:13:00,
2013-04-10 19:19:00,60.4,52.4,29.85,ENE,68,2.0,4.9,76,0.04,,,0.12,WSDL version 420,2013-04-10 23:19:00,
2013-04-10 19:26:00,59.4,51.4,29.85,WSW,255,0.7,2.7,74,0.04,,,0.12,WSDL version 420,2013-04-10 23:26:00,
2013-04-10 19:32:00,58.9,51.9,29.85,SSE,158,0.7,2.2,80,0.04,,,0.12,WSDL version 420,2013-04-10 23:32:00,
2013-04-10 19:38:00,58.6,52.2,29.83,SSE,163,1.3,2.9,80,0.04,,,0.12,WSDL version 420,2013-04-10 23:38:00,
2013-04-10 19:44:00,58.5,52.0,29.83,South,180,3.8,3.8,80,0.04,,,0.12,WSDL version 420,2013-04-10 23:44:00,
2013-04-10 19:50:00,58.2,52.8,29.80,SW,214,1.7,5.8,82,0.09,,,0.17,WSDL version 420,2013-04-10 23:50:00,
2013-04-10 19:56:00,58.0,52.9,29.80,SSW,195,2.5,4.0,84,0.09,,,0.17,WSDL version 420,2013-04-10 23:56:00,
2013-04-10 20:02:00,57.9,52.8,29.80,SSE,158,2.3,2.7,82,0.09,,,0.17,WSDL version 420,2013-04-11 00:02:00,
2013-04-10 20:08:00,57.7,52.1,29.80,SSW,195,0.9,3.1,82,0.09,,,0.17,WSDL version 420,2013-04-11 00:08:00,
2013-04-10 20:14:00,57.6,52.2,29.80,SSW,210,0.6,5.6,83,0.09,,,0.17,WSDL version 420,2013-04-11 00:14:00,
2013-04-10 20:21:00,57.5,52.1,29.80,SSW,203,2.2,5.6,82,0.05,,,0.17,WSDL version 420,2013-04-11 00:21:00,
2013-04-10 20:27:00,57.3,51.9,29.80,ESE,113,0.4,2.5,82,0.05,,,0.17,WSDL version 420,2013-04-11 00:27:00,
2013-04-10 20:33:00,57.0,52.4,29.80,South,173,1.5,2.5,84,0.05,,,0.17,WSDL version 420,2013-04-11 00:33:00,
2013-04-10 20:39:00,56.9,52.5,29.80,NE,56,1.3,3.6,86,0.05,,,0.17,WSDL version 420,2013-04-11 00:39:00,
2013-04-10 20:45:00,56.8,52.7,29.80,ENE,68,1.9,3.6,87,0.00,,,0.17,WSDL version 420,2013-04-11 00:45:00,
2013-04-10 20:51:00,56.7,53.0,29.80,SE,135,0.4,3.8,88,0.00,,,0.17,WSDL version 420,2013-04-11 00:51:00,
2013-04-10 20:57:00,56.5,53.1,29.80,SSE,165,1.8,3.8,88,0.00,,,0.17,WSDL version 420,2013-04-11 00:57:00,
2013-04-10 21:03:00,56.3,52.1,29.80,SSW,195,0.6,3.1,86,0.00,,,0.17,WSDL version 420,2013-04-11 01:03:00,
2013-04-10 21:09:00,56.2,51.6,29.80,South,188,0.4,1.6,84,0.00,,,0.17,WSDL version 420,2013-04-11 01:09:00,
2013-04-10 21:15:00,56.2,52.0,29.80,SSW,210,0.0,2.9,86,0.00,,,0.17,WSDL version 420,2013-04-11 01:15:00,
2013-04-10 21:22:00,56.1,52.2,29.80,ESE,120,1.3,3.1,86,0.00,,,0.17,WSDL version 420,2013-04-11 01:22:00,
2013-04-10 21:28:00,56.1,52.0,29.80,South,188,2.6,2.7,87,0.00,,,0.17,WSDL version 420,2013-04-11 01:28:00,
2013-04-10 21:34:00,55.9,53.1,29.80,South,188,1.3,3.6,90,0.00,,,0.17,WSDL version 420,2013-04-11 01:34:00,
2013-04-10 21:41:00,55.9,51.3,29.80,WSW,243,2.6,3.1,84,0.00,,,0.17,WSDL version 420,2013-04-11 01:41:00,
2013-04-10 21:47:00,55.8,51.8,29.80,WSW,248,2.3,3.1,87,0.00,,,0.17,WSDL version 420,2013-04-11 01:47:00,
2013-04-10 21:53:00,55.6,52.1,29.85,SW,236,2.7,3.4,88,0.04,,,0.21,WSDL version 420,2013-04-11 01:53:00,
2013-04-10 21:59:00,55.5,52.2,29.85,SW,225,0.0,3.1,89,0.04,,,0.21,WSDL version 420,2013-04-11 01:59:00,
2013-04-10 22:06:00,55.4,52.5,29.85,SW,225,0.0,2.0,90,0.04,,,0.21,WSDL version 420,2013-04-11 02:06:00,
2013-04-10 22:12:00,55.6,53.1,29.85,West,270,0.0,1.3,92,0.04,,,0.21,WSDL version 420,2013-04-11 02:12:00,
2013-04-10 22:18:00,55.4,53.0,29.85,West,270,0.0,0.0,91,0.04,,,0.21,WSDL version 420,2013-04-11 02:18:00,
2013-04-10 22:24:00,55.4,53.1,29.85,West,270,0.0,0.0,92,0.04,,,0.21,WSDL version 420,2013-04-11 02:24:00,
2013-04-10 22:30:00,55.4,53.5,29.85,East,90,0.0,1.1,93,0.04,,,0.21,WSDL version 420,2013-04-11 02:30:00,
2013-04-10 22:36:00,55.4,53.5,29.83,ESE,120,0.4,1.1,93,0.04,,,0.21,WSDL version 420,2013-04-11 02:36:00,
2013-04-10 22:43:00,55.3,53.1,29.83,SSW,203,1.3,1.6,92,0.04,,,0.21,WSDL version 420,2013-04-11 02:43:00,
2013-04-10 22:49:00,55.2,52.6,29.83,SW,225,2.5,3.1,91,0.00,,,0.21,WSDL version 420,2013-04-11 02:49:00,
2013-04-10 22:55:00,55.0,52.7,29.83,SW,236,2.3,3.1,92,0.00,,,0.21,WSDL version 420,2013-04-11 02:55:00,
2013-04-10 23:01:00,55.0,52.7,29.83,SSW,203,1.4,4.3,92,0.00,,,0.21,WSDL version 420,2013-04-11 03:01:00,
2013-04-10 23:07:00,55.0,52.8,29.83,South,180,1.1,4.3,92,0.00,,,0.21,WSDL version 420,2013-04-11 03:07:00,
2013-04-10 23:13:00,55.0,52.9,29.83,SSW,210,1.5,2.2,92,0.00,,,0.21,WSDL version 420,2013-04-11 03:13:00,
2013-04-10 23:19:00,55.0,53.0,29.80,SW,218,6.0,7.4,92,0.00,,,0.21,WSDL version 420,2013-04-11 03:19:00,
2013-04-10 23:25:00,55.1,53.0,29.80,South,191,2.9,7.4,92,0.00,,,0.21,WSDL version 420,2013-04-11 03:25:00,
2013-04-10 23:31:00,55.2,53.0,29.80,South,191,3.3,4.3,92,0.00,,,0.21,WSDL version 420,2013-04-11 03:31:00,
2013-04-10 23:37:00,55.2,53.3,29.80,SSW,210,2.8,3.8,93,0.00,,,0.21,WSDL version 420,2013-04-11 03:37:00,
2013-04-10 23:43:00,55.2,53.3,29.80,SSW,210,4.0,5.6,93,0.00,,,0.21,WSDL version 420,2013-04-11 03:43:00,
2013-04-10 23:49:00,55.2,53.3,29.80,SW,225,1.6,5.6,93,0.00,,,0.21,WSDL version 420,2013-04-11 03:49:00,
2013-04-10 23:55:00,55.2,53.2,29.80,SSW,203,2.6,3.4,92,0.00,,,0.21,WSDL version 420,2013-04-11 03:55:00,